Location: Amsterdam
(30.7274°N, 84.4357°W)
Time: 01:15:24
(UTC+00:00)

ISS - Visible Passes

Search period start: 18 July 2024 00:00
Search period end: 28 July 2024 00:00
Orbit: 409 x 424 km, 51.6° (Epoch: 17 July)

Date Brightness Start Highest point End Pass type
(mag) Time Alt. Az. Time Alt. Az. Time Alt. Az.
25 Jul -0.8 03:16:56 10° NNW 03:17:45 15° NNW 03:17:45 15° NNW visible
26 Jul -1.5 02:28:55 10° N 02:30:53 17° NNE 02:30:53 17° NNE visible
27 Jul -1.1 01:41:45 10° NNE 01:42:17 10° NNE 01:42:50 10° NE visible
27 Jul -0.8 03:16:04 10° NW 03:16:56 17° NW 03:16:56 17° NW visible
